Location: Skalnate Pleso
(49.1889°N, 20.2450°E)
Time: 16:27:14
(UTC+02:00)

Cosmos 1269 Rocket - Pass Details

Date: 01 March 2020
Orbit: 772 x 780 km, 74.1° (Epoch: 08 April)

Event Time Altitude Azimuth Distance (km) Brightness Sun altitude
Exits shadow 01:26:03 12° 17° (NNE) 2,222 6.9 -43.8°
Drops below altitude 10° 01:26:16 10° 17° (NNE) 2,303 7.0 -43.8°
Sets 01:28:47 0° 22° (NNE) 3,265 8.0 -43.5°
